Date String (YYYY-MM-DD hh:mm:ss) UTC,Instrument flags,absolute air pressure of the measurement (hPa),sample flow rate (lpm),inlet stack bypass flow (lpm),air temperature of the measurement (°C),ambient temperature measured by the external sensor (°C),aerosol sample conditioner tube jacket temperature (°C),OPC LED temperature (°C),internal box temperature (°C),relative humidity of the measurement (%),span deviation,mass concentration of particles derived from Lorenz-Mie calculation of OPC scattering (μg/m³),mass concentration of particles derived from Lorenz-Mie calculation of OPC scattering (μg/m³),mass concentration of particles derived from Lorenz-Mie calculation of OPC scattering (μg/m³)
DateTimeUTC,F1_M11,P_M11,Q1_M11,Q2_M11,T1_M11,T2_M11,T3_M11,T4_M11,T5_M11,U1_M11,ZSPAN_M11,X0_M11,X2_M11,X1_M11
2023-06-24 04:00:00,SystemResetWarning,0825.6,5.00,000.00,029.9,028.4,000.0,038.4,031.4,8.4,0000.0,0013.23,0004.70,0003.74
2023-06-24 04:01:00,SystemResetWarning,0825.6,5.00,000.00,030.0,028.5,000.0,038.4,031.4,8.0,0000.0,0013.29,0004.65,0003.74
2023-06-24 04:02:00,SystemResetWarning,0825.7,5.00,000.00,030.0,028.4,000.0,038.4,031.5,7.7,0000.0,0013.14,0004.68,0003.75
2023-06-24 04:03:00,SystemResetWarning,0825.7,4.99,000.00,030.0,026.5,000.0,038.4,031.4,7.7,0000.0,0013.39,0004.72,0003.76
2023-06-24 04:04:00,SystemResetWarning,0825.7,5.00,000.00,029.9,025.1,000.0,038.3,031.3,8.1,0000.0,0012.64,0004.70,0003.75
2023-06-24 04:05:00,SystemResetWarning,0825.7,5.00,000.00,029.8,024.9,000.0,038.3,030.9,8.1,0000.0,0013.14,0004.70,0003.75
2023-06-24 04:06:00,SystemResetWarning,0825.7,5.01,000.00,029.7,025.2,000.0,038.3,030.8,7.8,0000.0,0013.59,0004.72,0003.76
2023-06-24 04:07:00,SystemResetWarning,0825.8,5.01,000.00,029.7,025.7,000.0,038.3,030.9,7.8,0000.0,0013.85,0004.76,0003.78
2023-06-24 04:08:00,SystemResetWarning,0825.9,4.98,000.00,029.6,026.2,000.0,038.2,030.9,8.0,0000.0,0013.80,0004.77,0003.78
2023-06-24 04:09:00,SystemResetWarning,0825.9,5.02,000.00,029.6,026.6,000.0,038.2,030.9,7.9,0000.0,0012.26,0004.78,0003.79
2023-06-24 04:10:00,SystemResetWarning,0825.9,5.01,000.00,029.6,026.9,000.0,038.2,031.0,7.7,0000.0,0012.77,0004.82,0003.80
2023-06-24 04:11:00,SystemResetWarning,0825.9,4.99,000.00,029.6,027.2,000.0,038.2,031.0,7.5,0000.0,0012.70,0004.84,0003.80
2023-06-24 04:12:00,SystemResetWarning,0826.0,5.00,000.00,029.6,027.4,000.0,038.2,031.0,7.8,0000.0,0012.84,0004.92,0003.81
2023-06-24 04:13:00,SystemResetWarning,0826.1,5.00,000.00,029.7,027.6,000.0,038.2,031.1,7.8,0000.0,0012.93,0004.93,0003.80
2023-06-24 04:14:00,SystemResetWarning,0826.2,5.00,000.00,029.7,027.7,000.0,038.2,031.1,7.5,0000.0,0013.35,0004.92,0003.80
2023-06-24 04:15:00,SystemResetWarning,0826.3,5.00,000.00,029.7,027.8,000.0,038.2,031.1,7.6,0000.0,0014.29,0004.94,0003.80
2023-06-24 04:16:00,SystemResetWarning,0826.4,5.00,000.00,029.7,028.0,000.0,038.2,031.2,7.8,0000.0,0014.60,0005.00,0003.80
2023-06-24 04:17:00,SystemResetWarning,0826.5,5.00,000.00,029.7,028.1,000.0,038.2,031.2,8.0,0000.0,0014.55,0005.03,0003.80
2023-06-24 04:18:00,SystemResetWarning,0826.6,5.00,000.00,029.7,028.1,000.0,038.3,031.2,8.1,0000.0,0014.70,0005.02,0003.79
2023-06-24 04:19:00,SystemResetWarning,0826.6,5.00,000.00,029.8,028.2,000.0,038.3,031.3,8.1,0000.0,0014.72,0005.01,0003.79
2023-06-24 04:20:00,SystemResetWarning,0826.6,5.00,000.00,029.8,028.3,000.0,038.3,031.3,7.9,0000.0,0015.41,0004.98,0003.80
2023-06-24 04:21:00,SystemResetWarning,0826.7,5.00,000.00,029.8,028.3,000.0,038.3,031.3,8.1,0000.0,0015.11,0004.96,0003.78
2023-06-24 04:22:00,SystemResetWarning,0826.8,5.00,000.00,029.8,028.4,000.0,038.3,031.3,8.3,0000.0,0015.08,0004.93,0003.79
2023-06-24 04:23:00,SystemResetWarning,0826.7,5.00,000.00,029.9,028.4,000.0,038.3,031.4,8.3,0000.0,0014.46,0004.88,0003.78
2023-06-24 04:24:00,SystemResetWarning,0826.7,5.00,000.00,029.9,028.5,000.0,038.4,031.4,7.8,0000.0,0014.08,0004.84,0003.77
2023-06-24 04:25:00,SystemResetWarning,0826.8,5.00,000.00,029.9,028.5,000.0,038.4,031.4,7.8,0000.0,0013.27,0004.83,0003.78
2023-06-24 04:26:00,SystemResetWarning,0826.8,5.00,000.00,030.0,028.4,000.0,038.4,031.5,7.8,0000.0,0013.18,0004.83,0003.79
2023-06-24 04:27:00,SystemResetWarning,0826.8,4.99,000.00,030.0,026.5,000.0,038.3,031.4,8.3,0000.0,0012.26,0004.79,0003.80
2023-06-24 04:28:00,SystemResetWarning,0826.8,5.01,000.00,029.9,025.0,000.0,038.3,031.3,7.3,0000.0,0011.67,0004.74,0003.80
2023-06-24 04:29:00,SystemResetWarning,0826.8,5.01,000.00,029.8,024.8,000.0,038.3,031.0,7.6,0000.0,0011.14,0004.66,0003.80
2023-06-24 04:30:00,SystemResetWarning,0826.9,4.99,000.00,029.7,025.2,000.0,038.2,030.9,7.8,0002.4,0010.99,0004.64,0003.80
2023-06-24 04:31:00,SystemResetWarning,0826.9,4.99,000.00,029.7,025.7,000.0,038.2,030.8,8.0,0000.0,0010.49,0004.65,0003.79
2023-06-24 04:32:00,SystemResetWarning,0826.9,5.00,000.00,029.6,026.2,000.0,038.2,030.8,8.1,0000.5,0009.96,0004.65,0003.81
2023-06-24 04:33:00,SystemResetWarning,0827.0,5.01,000.00,029.6,026.6,000.0,038.2,030.9,8.3,0004.0,0009.81,0004.66,0003.82
2023-06-24 04:34:00,SystemResetWarning,0827.0,4.98,000.00,029.6,026.9,000.0,038.2,031.0,8.1,0004.1,0009.89,0004.66,0003.83
2023-06-24 04:35:00,SystemResetWarning,0826.9,4.99,000.00,029.6,027.2,000.0,038.2,031.0,7.7,0004.1,0009.99,0004.68,0003.86
2023-06-24 04:36:00,SystemResetWarning,0827.0,5.02,000.00,029.6,027.4,000.0,038.2,031.1,7.3,0004.2,0010.09,0004.69,0003.86
2023-06-24 04:37:00,SystemResetWarning,0827.0,5.01,000.00,029.7,027.6,000.0,038.2,031.1,7.5,0004.1,0009.78,0004.65,0003.86
2023-06-24 04:38:00,SystemResetWarning,0827.1,5.00,000.00,029.7,027.8,000.0,038.2,031.1,7.6,0003.6,0010.39,0004.69,0003.87
2023-06-24 04:39:00,SystemResetWarning,0827.1,4.99,000.00,029.7,027.9,000.0,038.2,031.1,8.0,0003.5,0011.15,0004.74,0003.90
2023-06-24 04:40:00,SystemResetWarning,0827.1,5.00,000.00,029.7,028.0,000.0,038.2,031.2,8.0,0003.3,0011.72,0004.80,0003.92
2023-06-24 04:41:00,SystemResetWarning,0827.1,5.00,000.00,029.7,028.1,000.0,038.3,031.2,8.0,0003.4,0012.03,0004.84,0003.95
2023-06-24 04:42:00,SystemResetWarning,0827.1,5.01,000.00,029.8,028.2,000.0,038.3,031.2,7.9,0003.2,0012.73,0004.86,0003.98
2023-06-24 04:43:00,SystemResetWarning,0827.1,5.01,000.00,029.8,028.3,000.0,038.3,031.3,7.6,0002.9,0012.74,0004.88,0004.00
2023-06-24 04:44:00,SystemResetWarning,0827.1,5.00,000.00,029.8,028.3,000.0,038.3,031.3,7.8,0002.7,0012.76,0004.89,0004.01
2023-06-24 04:45:00,SystemResetWarning,0827.1,5.00,000.00,029.8,028.4,000.0,038.3,031.3,7.7,0003.0,0012.75,0004.91,0004.02
2023-06-24 04:46:00,SystemResetWarning,0827.1,5.00,000.00,029.9,028.4,000.0,038.3,031.4,7.9,0002.6,0012.86,0004.92,0004.03
2023-06-24 04:47:00,SystemResetWarning,0827.1,5.00,000.00,029.9,028.5,000.0,038.3,031.4,8.2,0002.0,0013.29,0004.95,0004.06
2023-06-24 04:48:00,SystemResetWarning,0827.1,4.99,000.00,029.9,028.5,000.0,038.4,031.4,8.2,0001.8,0013.36,0005.00,0004.09
2023-06-24 04:49:00,SystemResetWarning,0827.2,5.00,000.00,030.0,028.4,000.0,038.4,031.5,7.8,0002.3,0012.81,0005.02,0004.10
2023-06-24 04:50:00,SystemResetWarning,0827.1,4.99,000.00,030.0,026.3,000.0,038.3,031.5,7.7,0002.7,0012.30,0004.97,0004.09
2023-06-24 04:51:00,SystemResetWarning,0827.2,5.01,000.00,029.9,024.9,000.0,038.3,031.4,7.9,0003.3,0012.28,0004.92,0004.09
2023-06-24 04:52:00,SystemResetWarning,0827.2,5.01,000.00,029.8,024.8,000.0,038.2,031.1,7.9,0003.4,0013.30,0004.91,0004.09
2023-06-24 04:53:00,SystemResetWarning,0827.2,5.00,000.00,029.7,025.2,000.0,038.2,030.9,8.1,0003.9,0012.54,0004.89,0004.08
2023-06-24 04:54:00,SystemResetWarning,0827.2,5.00,000.00,029.7,025.7,000.0,038.2,030.9,8.0,0000.0,0012.41,0004.92,0004.09
2023-06-24 04:55:00,SystemResetWarning,0827.2,5.00,000.00,029.7,026.2,000.0,038.2,030.9,7.9,0002.1,0012.55,0004.98,0004.13
2023-06-24 04:56:00,SystemResetWarning,0827.2,4.99,000.00,029.6,026.6,000.0,038.2,030.9,7.7,0005.0,0012.64,0005.01,0004.14
2023-06-24 04:57:00,SystemResetWarning,0827.3,4.99,000.00,029.6,026.9,000.0,038.2,031.0,7.3,0003.0,0013.17,0005.04,0004.14
2023-06-24 04:58:00,SystemResetWarning,0827.4,5.00,000.00,029.7,027.2,000.0,038.2,031.0,7.7,0000.0,0013.18,0005.01,0004.14
2023-06-24 04:59:00,SystemResetWarning,0827.4,5.01,000.00,029.7,027.4,000.0,038.2,031.1,8.1,0000.0,0013.30,0005.02,0004.14
